Location: Unspecified
(51.0000°N, 12.0000°E)
Time: 20:57:29
(UTC+01:00)

Envisat - Visible Passes

Search period start: 25 February 2018 00:00
Search period end: 07 March 2018 00:00
Orbit: 764 x 766 km, 98.2° (Epoch: 25 February)

Date Brightness Start Highest point End Pass type
(mag) Time Alt. Az. Time Alt. Az. Time Alt. Az.
25 Feb 3.0 19:07:58 10° SSE 19:12:58 64° ENE 19:18:01 10° N visible
25 Feb 5.3 20:48:36 10° SW 20:52:26 21° W 20:56:19 10° NW visible
26 Feb 3.7 18:31:55 10° SE 18:36:27 34° ENE 18:40:59 10° N visible
26 Feb 4.2 20:10:36 10° SSW 20:15:24 41° W 20:20:13 10° NNW visible
27 Feb 3.0 19:33:27 10° SSE 19:38:33 82° WSW 19:43:40 10° NNW visible
27 Feb 5.8 21:16:01 10° WSW 21:18:23 13° W 21:20:46 10° WNW visible
28 Feb 3.1 18:56:57 10° SE 19:01:52 52° ENE 19:06:49 10° N visible
28 Feb 5.0 20:36:59 10° SSW 20:41:11 26° W 20:45:26 10° NW visible
01 Mar 3.9 18:21:06 10° ESE 18:25:24 28° ENE 18:29:42 10° N visible
01 Mar 3.8 19:59:16 10° S 20:04:12 51° W 20:09:11 10° NNW visible
02 Mar 2.9 19:22:19 10° SSE 19:27:24 83° ENE 19:32:31 10° NNW visible
02 Mar 5.7 21:03:57 10° SW 21:07:05 16° W 21:10:14 10° NW visible
03 Mar 3.4 18:46:01 10° SE 18:50:47 43° ENE 18:55:36 10° N visible
03 Mar 4.7 20:25:27 10° SSW 20:29:57 31° W 20:34:29 10° NNW visible
04 Mar 3.5 19:47:59 10° S 19:53:01 62° WSW 19:58:05 10° NNW visible
05 Mar 2.9 19:11:15 10° SSE 19:16:17 69° ENE 19:21:21 10° N visible
05 Mar 5.4 20:52:08 10° SW 20:55:49 20° W 20:59:30 10° NW visible
06 Mar 3.6 18:35:07 10° SE 18:39:43 36° ENE 18:44:21 10° N visible
06 Mar 4.4 20:14:01 10° SSW 20:18:44 38° W 20:23:29 10° NNW visible
